Location: Newark
(48.7500°N, 4.6667°E)
Time: 06:14:31
(UTC+00:00)

Envisat - Visible Passes

Search period start: 18 October 2019 00:00
Search period end: 28 October 2019 00:00
Orbit: 764 x 766 km, 98.1° (Epoch: 17 October)

Date Brightness Start Highest point End Pass type
(mag) Time Alt. Az. Time Alt. Az. Time Alt. Az.
18 Oct 5.3 18:47:04 10° SW 18:51:10 24° W 18:55:17 10° NW visible
19 Oct 6.4 05:13:33 10° ENE 05:15:55 13° E 05:18:15 10° ESE visible
19 Oct 4.0 18:09:14 10° S 18:14:08 49° W 18:19:04 10° NNW visible
20 Oct 3.0 17:32:13 10° SSE 17:37:18 83° ENE 17:42:25 10° NNW visible
20 Oct 6.0 19:14:09 10° WSW 19:16:59 15° W 19:19:49 10° NW visible
21 Oct 5.0 18:35:23 10° SSW 18:39:48 30° W 18:44:16 10° NNW visible
22 Oct 6.7 05:03:47 10° ENE 05:04:28 10° E 05:05:10 10° E visible
22 Oct 3.6 17:57:49 10° S 18:02:49 60° W 18:07:53 10° NNW visible
23 Oct 3.0 17:21:01 10° SSE 17:26:03 68° ENE 17:31:07 10° N visible
23 Oct 5.7 19:02:06 10° SW 19:05:34 18° W 19:09:04 10° NW visible
24 Oct 6.1 05:26:57 10° NE 05:30:22 18° E 05:33:45 10° SE visible
24 Oct 4.6 18:23:47 10° SSW 18:28:27 36° W 18:33:10 10° NNW visible
25 Oct 3.2 17:46:28 10° S 17:51:32 75° WSW 17:56:38 10° NNW visible
25 Oct 6.3 19:30:19 10° W 19:31:27 11° W 19:32:35 10° WNW visible
26 Oct 3.1 17:09:52 10° SSE 17:14:49 55° ENE 17:19:47 10° N visible
26 Oct 5.4 18:50:14 10° SW 18:54:11 22° W 18:58:09 10° NW visible
27 Oct 6.2 05:16:14 10° NE 05:18:56 14° E 05:21:39 10° ESE visible
27 Oct 4.2 18:12:16 10° S 18:17:07 45° W 18:22:01 10° NNW visible
